Terminal Aerodrome Forecast
Issued by NWS Portland, OR

Home | Current Version | Previous Version | Text Only | Print | Product List | Glossary On
Versions: 1 2 3 4 5 6 7 8 9 10 11 12 13 14 15 16 17 18 19 20 21 22 23 24 25 26 27 28 29 30 31 32 33 34 35 36 37 38
000
FTUS46 KPQR 311724
TAFHIO
TAF
KHIO 311724Z 3118/0118 17005KT P6SM VCSH BKN050 BKN100
     FM010100 25007KT P6SM BKN040
     FM010700 27003KT P6SM BKN035
     FM011100 17003KT P6SM OVC050=

USA.gov is the U.S. government's official web portal to all federal, state and local government web resources and services.